Location: Pella
(41.4080°N, 92.9160°W)
Time: 04:51:21
(UTC-05:00)

ASTRO E2 - Visible Passes

Search period start: 24 May 2016 00:00
Search period end: 03 June 2016 00:00
Orbit: 518 x 525 km, 31.4° (Epoch: 23 May)

Date Brightness Start Highest point End Pass type
(mag) Time Alt. Az. Time Alt. Az. Time Alt. Az.
31 May 5.1 04:49:16 10° SSE 04:49:33 10° SSE 04:49:49 10° SSE visible
01 Jun 5.0 04:32:11 10° S 04:33:32 11° SSE 04:34:52 10° SE visible
02 Jun 4.8 04:16:35 12° S 04:17:31 13° SSE 04:19:19 10° SE visible
